Weather Roundup
Issued by NWS Chicago, IL

Home | Current Version | Previous Version | Graphics & Text | Print | Product List | Glossary On
Versions: 1 2 3 4 5 6 7 8 9 10 11 12 13 14 15 16 17 18 19 20 21 22 23 24 25 26 27 28 29 30 31 32 33 34 35 36 37 38 39 40 41 42 43 44 45 46 47 48 49 50
000
NZUS59 KLOT 290921
HRRLOT

CHICAGO AREA WEATHER ROUNDUP
NATIONAL WEATHER SERVICE CHICAGO/ROMEOVILLE IL
400 AM CDT WED JUL 29 2015

NOTE: "FAIR" INDICATES FEW OR NO CLOUDS BELOW 12,000 FEET WITH NO
SIGNIFICANT WEATHER AND/OR OBSTRUCTIONS TO VISIBILITY.

* THESE STATIONS ARE NOT UNDER NWS QUALITY CONTROL. THEY ALSO MAY NOT
  REPORT WEATHER SUCH AS PRECIPITATION OR FOG.

ILZ005-006-012>014-019>023-291000-
NORTHEAST ILLINOIS

CITY           SKY/WX    TMP DP  RH WIND       PRES   REMARKS
OHARE          CLOUDY    77  71  82 SW5       29.93R
MIDWAY         CLOUDY    78  71  79 SW9       29.92S HX  80
AURORA         CLOUDY    73  69  87 SW5       29.95R
LANSING*       LGT RAIN  75  71  85 SW6       29.94F
JOLIET*        CLOUDY    75  73  95 CALM      29.95R
WAUKEGAN       CLOUDY    76  72  87 VRB5      29.92R
DUPAGE AIRPORT CLOUDY    74  71  91 SW8       29.94R
WHEELING       CLOUDY    78  70  76 SW6       29.94R HX  80
KANKAKEE*      TSTM      73  72  97 W8        29.96F
MORRIS*        CLOUDY    73  71  93 SW5       29.91F
LEWIS AIRPORT* CLOUDY    73  72  94 SW5       29.96R
NORTHERLY IS     N/A     77  72  84 S3          N/A
$$

WIZ051-052-058>065-066-070>072-291000-
SOUTHEAST WISCONSIN

CITY           SKY/WX    TMP DP  RH WIND       PRES   REMARKS
MILWAUKEE      MOCLDY    76  71  85 SW7       29.90S
KENOSHA*       CLOUDY    76  73  91 SW7       29.92S
RACINE*        CLOUDY    77  71  82 SW5       29.92S
BURLINGTON     CLOUDY    71  70  97 SW3       29.93R
WAUKESHA       MOCLDY    72  70  94 SW3       29.93S
WEST BEND      CLOUDY    72  70  94 CALM      29.91S
$$

INZ001>003-010>013-019-020-291000-
NORTHWEST INDIANA

CITY           SKY/WX    TMP DP  RH WIND       PRES   REMARKS
GARY*          DRIZZLE   77  76  97 CALM      29.94S
MICHIGAN CITY* NOT AVBL
RENSSELAER*    NOT AVBL
VALPARAISO     CLOUDY    77  73  87 SW9       29.96R
$$

LMZ740>746-291000-
SOUTHERN LAKE MICHIGAN

STATION/POSITION TIME  SKY/WX   TEMP WIND        PRES    VSBY
                                AIR  DIR/SP/G
                 (UTC)          (F)  (DEG/KT/KT) (MB)    (MI)
HARRISON CRIB    0900            77  200/ 12/ 13   N/A
BURNHAM HARBOR   0900            77  190/  3/  8   N/A
CALUMET HARBOR   0800            75  240/  2/  8   N/A
BURNS HARBOR     0800            79  200/  9/ 10 1013.5S
MICHIGAN CITY    0900            76  220/ 10/ 11   N/A
$$

ABBREVIATIONS USED IN REMARKS
   TC - TEMPERATURE IN CELSIUS
  WCI - WIND CHILL INDEX
   HX - HEAT INDEX
  VSB - VISIBILITY
$$


USA.gov is the U.S. government's official web portal to all federal, state and local government web resources and services.